Overview Statistics Trail Chart Weather Telemetry Raw packets
 

This is the latest recevied weather packets stored in our database for station/object HB9BB-10. If no packets are shown the sender has not sent any weather packets the latest 10 day(s).

<< 19 20 21 22 23 24 25 >>
Time Temp. Humidity Pressure Rain* Wind** Luminosity Snow
1787943163 25.56° C 30% 1034.3 hPa - - - -
1787941782 26.11° C 30% 1034 hPa - - - -
1787940402 26.11° C 30% 1034 hPa - - - -
1787939022 27.22° C 30% 1033.8 hPa - - - -
1787937642 26.67° C 30% 1034 hPa - - - -
1787936268 27.22° C 30% 1033.9 hPa - - - -
1787936262 27.22° C 30% 1033.9 hPa - - - -
1787934882 27.22° C 30% 1033.6 hPa - - - -
1787933501 27.22° C 30% 1033.4 hPa - - - -
1787932121 27.78° C 30% 1033.3 hPa - - - -
1787930741 27.78° C 30% 1032.7 hPa - - - -
1787929361 27.78° C 30% 1032.9 hPa - - - -
1787927981 28.33° C 30% 1033.2 hPa - - - -
1787926601 28.33° C 30% 1033.2 hPa - - - -
1787925219 28.33° C 29% 1033.3 hPa - - - -
1787923839 28.33° C 29% 1033.8 hPa - - - -
1787922459 28.33° C 29% 1033.8 hPa - - - -
1787921079 28.89° C 29% 1033.6 hPa - - - -
1787919699 28.89° C 28% 1033.7 hPa - - - -
1787918319 29.44° C 28% 1034.2 hPa - - - -
1787916938 29.44° C 28% 1034.1 hPa - - - -
1787915558 30° C 28% 1034 hPa - - - -
1787914178 30° C 27% 1033.6 hPa - - - -
1787912798 30° C 28% 1033 hPa - - - -
1787911418 30° C 27% 1032.8 hPa - - - -

* Rain since midnight (hover to see other rain measurements)
** Current wind speed in m/s (hover to see current wind gust speed)